IRIDIUM 125

Last updated on Fri Sep 11 2026 00:03:06 GMT+0000 (Coordinated Universal Time)

1 42964U 17061K 26253.36480093 .00000155 00000+0 48195-4 0 9992 2 42964 86.4032 349.7891 0002698 91.4669 268.6835 14.34217654467069
UTC large
Height (km)
Speed (km/s)
/
Latitude / Longitude
Inclination (degrees)
Orbital Period (minutes)
Azimuth
Elevation
Range (km)
Doppler Factor

Next 0 passes for location: London (51.5072 / 0.1276)

No passes found over London.
IRIDIUM 125